EJU63AG LFMN-LEPA

Flight info

Callsign EJU63AG
Flight time 1h 10m
Altitude 34000
Route EPOLO DCT SOFFY/N0442F350 DCT VATIR N852 VERSO L129 LUNIK
Aircraft A320/M-SDE3FGHIRWY/LB1

Departure

Time 2026-05-07 18:00
Airport Nice-Côte d'Azur Airport (LFMN)

Arrival

Time 2026-05-07 19:11
Airport Palma de Mallorca Airport (LEPA)
Time Latitude Longitude Altitude Speed Heading
2026-05-07 17:34 43.66119 7.20684 22 ft 0 kts 261°
2026-05-07 17:34 43.66119 7.20687 22 ft 0 kts 261°
2026-05-07 17:53 43.66120 7.20690 48 ft 2 kts 261°
2026-05-07 17:53 43.66124 7.20725 23 ft 4 kts 261°
2026-05-07 17:53 43.66127 7.20754 24 ft 4 kts 252°
2026-05-07 17:54 43.66140 7.20781 22 ft 4 kts 198°
2026-05-07 17:54 43.66163 7.20782 21 ft 4 kts 171°
2026-05-07 17:54 43.66169 7.20781 21 ft 0 kts 171°
2026-05-07 17:56 43.66157 7.20783 22 ft 8 kts 171°
2026-05-07 17:56 43.66057 7.20805 21 ft 17 kts 171°
2026-05-07 17:56 43.65932 7.20833 23 ft 18 kts 170°
2026-05-07 17:56 43.65804 7.20862 21 ft 18 kts 171°
2026-05-07 17:57 43.65673 7.20891 21 ft 20 kts 171°
2026-05-07 17:57 43.65575 7.20913 23 ft 22 kts 171°
2026-05-07 17:57 43.65373 7.20952 21 ft 21 kts 185°
2026-05-07 17:57 43.65259 7.20822 21 ft 23 kts 223°
2026-05-07 17:58 43.65143 7.20658 21 ft 24 kts 227°
2026-05-07 17:58 43.65032 7.20509 21 ft 23 kts 223°
2026-05-07 17:58 43.64913 7.20355 22 ft 24 kts 225°
2026-05-07 17:58 43.64822 7.20260 22 ft 10 kts 179°
2026-05-07 17:59 43.64777 7.20302 23 ft 8 kts 130°
2026-05-07 17:59 43.64759 7.20352 23 ft 5 kts 87°
2026-05-07 17:59 43.64784 7.20401 23 ft 12 kts 45°
2026-05-07 17:59 43.65015 7.20719 23 ft 83 kts 45°
2026-05-07 18:00 43.65566 7.21480 24 ft 139 kts 45°
2026-05-07 18:00 43.66335 7.22569 223 ft 167 kts 48°
2026-05-07 18:00 43.66857 7.23962 863 ft 167 kts 91°
2026-05-07 18:00 43.66418 7.25376 1507 ft 164 kts 137°
2026-05-07 18:01 43.65570 7.26432 2168 ft 164 kts 136°
2026-05-07 18:01 43.64745 7.27525 2785 ft 165 kts 135°
2026-05-07 18:01 43.63884 7.28584 3302 ft 171 kts 150°
2026-05-07 18:01 43.62670 7.28932 3552 ft 193 kts 192°
2026-05-07 18:02 43.60320 7.26495 4099 ft 239 kts 224°
2026-05-07 18:02 43.59067 7.24822 4526 ft 261 kts 224°
2026-05-07 18:02 43.57743 7.23058 5272 ft 268 kts 224°
2026-05-07 18:03 43.56385 7.21259 6124 ft 272 kts 223°
2026-05-07 18:03 43.55010 7.19444 6956 ft 276 kts 223°
2026-05-07 18:03 43.53634 7.17632 7753 ft 279 kts 223°
2026-05-07 18:03 43.52220 7.15774 8564 ft 283 kts 223°
2026-05-07 18:04 43.50785 7.13894 9384 ft 286 kts 223°
2026-05-07 18:04 43.49330 7.11988 10134 ft 292 kts 223°
2026-05-07 18:04 43.47799 7.09984 10395 ft 315 kts 223°
2026-05-07 18:04 43.46164 7.07850 10834 ft 329 kts 223°
2026-05-07 18:05 43.44492 7.05670 11534 ft 333 kts 223°
2026-05-07 18:05 43.42801 7.03467 12272 ft 336 kts 223°
2026-05-07 18:05 43.41098 7.01251 13028 ft 339 kts 223°
2026-05-07 18:05 43.39379 6.99016 13758 ft 341 kts 223°
2026-05-07 18:06 43.37647 6.96765 14394 ft 344 kts 223°
2026-05-07 18:06 43.35901 6.94498 15040 ft 346 kts 223°
2026-05-07 18:06 43.34145 6.92219 15677 ft 349 kts 223°
2026-05-07 18:06 43.32375 6.89921 16318 ft 351 kts 224°
2026-05-07 18:07 43.30594 6.87609 16950 ft 354 kts 224°
2026-05-07 18:07 43.28800 6.85284 17574 ft 356 kts 224°
2026-05-07 18:07 43.26993 6.82941 18206 ft 359 kts 224°
2026-05-07 18:07 43.25175 6.80586 18746 ft 361 kts 224°
2026-05-07 18:08 43.23342 6.78217 19292 ft 363 kts 224°
2026-05-07 18:08 43.21502 6.75842 19840 ft 364 kts 224°
2026-05-07 18:08 43.19654 6.73457 20384 ft 366 kts 224°
2026-05-07 18:08 43.17794 6.71062 20915 ft 368 kts 224°
2026-05-07 18:09 43.15928 6.68661 21432 ft 369 kts 224°
2026-05-07 18:09 43.14050 6.66244 21941 ft 371 kts 224°
2026-05-07 18:09 43.12162 6.63817 22457 ft 373 kts 224°
2026-05-07 18:09 43.10264 6.61381 22949 ft 375 kts 224°
2026-05-07 18:10 43.08354 6.58934 23435 ft 377 kts 224°
2026-05-07 18:10 43.06435 6.56475 23861 ft 379 kts 224°
2026-05-07 18:10 43.04510 6.54010 24284 ft 380 kts 224°
2026-05-07 18:10 43.02577 6.51541 24680 ft 381 kts 225°
2026-05-07 18:11 43.00667 6.49103 25097 ft 382 kts 225°
2026-05-07 18:11 42.99354 6.47428 25373 ft 382 kts 225°
2026-05-07 18:11 42.96782 6.44141 25945 ft 383 kts 225°
2026-05-07 18:11 42.94839 6.41658 26361 ft 383 kts 225°
2026-05-07 18:12 42.92891 6.39174 26759 ft 384 kts 224°
2026-05-07 18:12 42.90936 6.36689 27167 ft 384 kts 224°
2026-05-07 18:12 42.88977 6.34200 27554 ft 385 kts 225°
2026-05-07 18:12 42.87020 6.31715 28028 ft 384 kts 225°
2026-05-07 18:13 42.85067 6.29239 28484 ft 383 kts 224°
2026-05-07 18:13 42.83108 6.26760 28817 ft 385 kts 224°
2026-05-07 18:13 42.81114 6.24234 29171 ft 387 kts 224°
2026-05-07 18:13 42.79167 6.21765 29519 ft 388 kts 224°
2026-05-07 18:14 42.77161 6.19224 29883 ft 389 kts 224°
2026-05-07 18:14 42.75201 6.16748 30200 ft 390 kts 224°
2026-05-07 18:14 42.73208 6.14235 30495 ft 391 kts 224°
2026-05-07 18:14 42.71212 6.11719 30784 ft 391 kts 224°
2026-05-07 18:15 42.69213 6.09204 31079 ft 392 kts 224°
2026-05-07 18:15 42.67222 6.06697 31518 ft 388 kts 224°
2026-05-07 18:15 42.65249 6.04215 31990 ft 384 kts 224°
2026-05-07 18:15 42.63297 6.01762 32432 ft 381 kts 223°
2026-05-07 18:16 42.61356 5.99327 32849 ft 379 kts 223°
2026-05-07 18:16 42.59428 5.96909 33256 ft 376 kts 223°
2026-05-07 18:16 42.57512 5.94508 33672 ft 374 kts 223°
2026-05-07 18:16 42.55605 5.92122 33937 ft 372 kts 223°
2026-05-07 18:17 42.53726 5.89768 33974 ft 364 kts 223°
2026-05-07 18:17 42.50047 5.85167 33976 ft 358 kts 223°
2026-05-07 18:18 42.46390 5.80613 33965 ft 357 kts 223°
2026-05-07 18:18 42.42730 5.76055 33978 ft 358 kts 223°
2026-05-07 18:19 42.39066 5.71500 33980 ft 358 kts 223°
2026-05-07 18:19 42.35398 5.66949 33990 ft 358 kts 222°
2026-05-07 18:20 42.31727 5.62404 33980 ft 358 kts 222°
2026-05-07 18:20 42.28059 5.57866 33979 ft 358 kts 222°
2026-05-07 18:21 42.24391 5.53328 33965 ft 358 kts 221°
2026-05-07 18:21 42.20716 5.48805 33963 ft 358 kts 221°
2026-05-07 18:22 42.17059 5.44312 33963 ft 358 kts 221°
2026-05-07 18:22 42.13381 5.39787 33963 ft 358 kts 221°
2026-05-07 18:23 42.09703 5.35266 33962 ft 358 kts 221°
2026-05-07 18:23 42.06015 5.30759 33962 ft 358 kts 221°
2026-05-07 18:24 42.02322 5.26245 33962 ft 359 kts 221°
2026-05-07 18:24 41.99227 5.22459 33959 ft 359 kts 221°
2026-05-07 18:25 41.95549 5.17979 33963 ft 359 kts 221°
2026-05-07 18:25 41.91841 5.13476 33963 ft 360 kts 221°
2026-05-07 18:26 41.88128 5.08978 33953 ft 360 kts 221°
2026-05-07 18:26 41.84414 5.04472 33953 ft 360 kts 221°
2026-05-07 18:27 41.80701 4.99953 33958 ft 361 kts 221°
2026-05-07 18:27 41.76977 4.95439 33953 ft 361 kts 220°
2026-05-07 18:28 41.73238 4.90940 33959 ft 362 kts 221°
2026-05-07 18:28 41.69488 4.86425 33958 ft 363 kts 221°
2026-05-07 18:29 41.65730 4.81904 33950 ft 363 kts 220°
2026-05-07 18:29 41.61972 4.77376 33954 ft 364 kts 220°
2026-05-07 18:30 41.58205 4.72855 33963 ft 364 kts 220°
2026-05-07 18:30 41.54432 4.68348 33962 ft 364 kts 220°
2026-05-07 18:31 41.50653 4.63835 33967 ft 364 kts 220°
2026-05-07 18:31 41.46886 4.59332 33958 ft 364 kts 220°
2026-05-07 18:32 41.43106 4.54833 33967 ft 364 kts 220°
2026-05-07 18:32 41.39323 4.50331 33957 ft 365 kts 220°
2026-05-07 18:33 41.35534 4.45825 33956 ft 365 kts 220°
2026-05-07 18:33 41.31740 4.41323 33957 ft 365 kts 220°
2026-05-07 18:34 41.27942 4.36829 33959 ft 366 kts 220°
2026-05-07 18:34 41.24136 4.32332 33943 ft 366 kts 220°
2026-05-07 18:35 41.20329 4.27844 33946 ft 366 kts 220°
2026-05-07 18:35 41.16540 4.23385 33947 ft 367 kts 220°
2026-05-07 18:36 41.12723 4.18898 33979 ft 367 kts 220°
2026-05-07 18:36 41.08900 4.14399 33971 ft 367 kts 220°
2026-05-07 18:37 41.05085 4.09925 33943 ft 367 kts 220°
2026-05-07 18:37 41.01243 4.05442 33937 ft 368 kts 220°
2026-05-07 18:38 40.97395 4.00949 33941 ft 370 kts 220°
2026-05-07 18:38 40.93533 3.96440 33942 ft 370 kts 220°
2026-05-07 18:39 40.89659 3.91929 33940 ft 371 kts 220°
2026-05-07 18:39 40.85785 3.87423 33940 ft 371 kts 220°
2026-05-07 18:40 40.81905 3.82919 33925 ft 372 kts 220°
2026-05-07 18:40 40.78041 3.78435 33964 ft 372 kts 220°
2026-05-07 18:41 40.74163 3.73945 33971 ft 370 kts 220°
2026-05-07 18:41 40.70293 3.69479 33971 ft 369 kts 220°
2026-05-07 18:42 40.66432 3.65036 33965 ft 368 kts 220°
2026-05-07 18:42 40.62581 3.60593 33960 ft 368 kts 220°
2026-05-07 18:43 40.58732 3.56161 33951 ft 368 kts 220°
2026-05-07 18:43 40.54828 3.51678 33959 ft 379 kts 220°
2026-05-07 18:44 40.50832 3.47104 33123 ft 383 kts 220°
2026-05-07 18:44 40.48823 3.44806 32404 ft 383 kts 220°
2026-05-07 18:44 40.46800 3.42538 31765 ft 382 kts 216°
2026-05-07 18:44 40.44527 3.40768 31156 ft 380 kts 204°
2026-05-07 18:45 40.42004 3.39744 30554 ft 381 kts 192°
2026-05-07 18:45 40.39351 3.39514 29944 ft 385 kts 181°
2026-05-07 18:45 40.36673 3.39673 29284 ft 384 kts 181°
2026-05-07 18:45 40.34026 3.39825 28839 ft 378 kts 181°
2026-05-07 18:46 40.31417 3.39972 28376 ft 373 kts 181°
2026-05-07 18:46 40.28843 3.40115 27929 ft 368 kts 181°
2026-05-07 18:46 40.26303 3.40255 27489 ft 363 kts 180°
2026-05-07 18:46 40.23801 3.40393 27041 ft 359 kts 180°
2026-05-07 18:47 40.21319 3.40533 26598 ft 355 kts 180°
2026-05-07 18:47 40.18865 3.40673 26146 ft 351 kts 181°
2026-05-07 18:47 40.16436 3.40813 25688 ft 349 kts 181°
2026-05-07 18:47 40.14022 3.40955 25239 ft 347 kts 181°
2026-05-07 18:48 40.11611 3.41097 24766 ft 345 kts 181°
2026-05-07 18:48 40.09217 3.41234 24326 ft 343 kts 181°
2026-05-07 18:48 40.06834 3.41367 23868 ft 342 kts 181°
2026-05-07 18:48 40.04457 3.41501 23370 ft 342 kts 181°
2026-05-07 18:49 40.02085 3.41632 22861 ft 340 kts 181°
2026-05-07 18:49 39.99727 3.41759 22402 ft 338 kts 180°
2026-05-07 18:49 39.97381 3.41885 21942 ft 336 kts 180°
2026-05-07 18:49 39.95048 3.42012 21425 ft 336 kts 180°
2026-05-07 18:50 39.92705 3.42142 20909 ft 337 kts 179°
2026-05-07 18:50 39.90403 3.42270 20498 ft 335 kts 179°
2026-05-07 18:50 39.88081 3.42398 20079 ft 333 kts 178°
2026-05-07 18:50 39.85778 3.42529 19669 ft 331 kts 178°
2026-05-07 18:51 39.83485 3.42662 19269 ft 329 kts 177°
2026-05-07 18:51 39.81202 3.42794 18859 ft 327 kts 177°
2026-05-07 18:51 39.78934 3.42922 18457 ft 326 kts 176°
2026-05-07 18:51 39.76669 3.43050 18030 ft 325 kts 176°
2026-05-07 18:52 39.74418 3.43174 17619 ft 323 kts 178°
2026-05-07 18:52 39.72214 3.42850 17410 ft 316 kts 194°
2026-05-07 18:52 39.70231 3.41707 17271 ft 309 kts 211°
2026-05-07 18:52 39.68633 3.39896 17138 ft 304 kts 229°
2026-05-07 18:53 39.67522 3.37602 17010 ft 298 kts 241°
2026-05-07 18:53 39.66618 3.35227 16885 ft 290 kts 242°
2026-05-07 18:53 39.65729 3.32905 16662 ft 286 kts 240°
2026-05-07 18:53 39.64840 3.30603 16387 ft 285 kts 241°
2026-05-07 18:54 39.63952 3.28313 16078 ft 284 kts 240°
2026-05-07 18:54 39.63065 3.26028 15788 ft 284 kts 240°
2026-05-07 18:54 39.62179 3.23744 15491 ft 283 kts 240°
2026-05-07 18:54 39.61296 3.21462 15210 ft 283 kts 241°
2026-05-07 18:55 39.60417 3.19186 14932 ft 282 kts 241°
2026-05-07 18:55 39.59539 3.16915 14669 ft 281 kts 240°
2026-05-07 18:55 39.58663 3.14653 14396 ft 281 kts 240°
2026-05-07 18:55 39.57787 3.12399 14109 ft 281 kts 241°
2026-05-07 18:56 39.56907 3.10137 13831 ft 280 kts 242°
2026-05-07 18:56 39.56033 3.07884 13552 ft 280 kts 242°
2026-05-07 18:56 39.55164 3.05643 13320 ft 277 kts 242°
2026-05-07 18:56 39.54300 3.03418 13048 ft 275 kts 241°
2026-05-07 18:57 39.53445 3.01216 12765 ft 274 kts 241°
2026-05-07 18:57 39.52590 2.99018 12464 ft 273 kts 241°
2026-05-07 18:57 39.51735 2.96826 12191 ft 272 kts 241°
2026-05-07 18:57 39.50883 2.94642 11898 ft 271 kts 241°
2026-05-07 18:58 39.50036 2.92475 11626 ft 269 kts 242°
2026-05-07 18:58 39.49189 2.90310 11298 ft 269 kts 241°
2026-05-07 18:58 39.48345 2.88156 11012 ft 268 kts 241°
2026-05-07 18:58 39.47501 2.86001 10692 ft 268 kts 242°
2026-05-07 18:59 39.46662 2.83854 10438 ft 266 kts 241°
2026-05-07 18:59 39.45839 2.81718 10174 ft 264 kts 242°
2026-05-07 18:59 39.45033 2.79625 10005 ft 258 kts 243°
2026-05-07 18:59 39.44227 2.77532 9573 ft 262 kts 243°
2026-05-07 19:00 39.43409 2.75400 9100 ft 267 kts 242°
2026-05-07 19:00 39.42585 2.73221 8603 ft 271 kts 242°
2026-05-07 19:00 39.41751 2.71032 8238 ft 268 kts 243°
2026-05-07 19:00 39.40949 2.68929 7993 ft 254 kts 243°
2026-05-07 19:01 39.40181 2.66928 7676 ft 245 kts 244°
2026-05-07 19:01 39.39417 2.64986 7299 ft 240 kts 242°
2026-05-07 19:01 39.38657 2.63084 6933 ft 236 kts 242°
2026-05-07 19:01 39.37903 2.61198 6474 ft 237 kts 242°
2026-05-07 19:02 39.37155 2.59320 6048 ft 235 kts 243°
2026-05-07 19:02 39.36406 2.57457 5708 ft 231 kts 242°
2026-05-07 19:02 39.35676 2.55649 5409 ft 223 kts 242°
2026-05-07 19:02 39.34969 2.53896 5113 ft 217 kts 242°
2026-05-07 19:03 39.34369 2.52106 4804 ft 218 kts 258°
2026-05-07 19:03 39.34523 2.50209 4522 ft 212 kts 298°
2026-05-07 19:03 39.35459 2.48875 4321 ft 195 kts 335°
2026-05-07 19:03 39.36746 2.48490 4149 ft 190 kts 359°
2026-05-07 19:04 39.38060 2.48418 3960 ft 190 kts
2026-05-07 19:04 39.39374 2.48383 3792 ft 188 kts
2026-05-07 19:04 39.40676 2.48348 3638 ft 185 kts
2026-05-07 19:04 39.41964 2.48318 3562 ft 186 kts
2026-05-07 19:05 39.43261 2.48283 3491 ft 187 kts
2026-05-07 19:05 39.44556 2.48257 3412 ft 187 kts
2026-05-07 19:05 39.45854 2.48193 3332 ft 185 kts
2026-05-07 19:05 39.47137 2.48132 3264 ft 186 kts
2026-05-07 19:06 39.48427 2.48239 3150 ft 183 kts 24°
2026-05-07 19:06 39.49511 2.50832 3026 ft 178 kts 94°
2026-05-07 19:06 39.49505 2.52435 2890 ft 177 kts 88°
2026-05-07 19:07 39.49542 2.54034 2717 ft 178 kts 89°
2026-05-07 19:07 39.49577 2.55637 2515 ft 177 kts 89°
2026-05-07 19:07 39.49615 2.57226 2309 ft 176 kts 87°
2026-05-07 19:07 39.49652 2.58815 2106 ft 177 kts 85°
2026-05-07 19:08 39.49899 2.60335 1889 ft 173 kts 69°
2026-05-07 19:08 39.50393 2.61762 1690 ft 175 kts 64°
2026-05-07 19:08 39.50981 2.63132 1439 ft 175 kts 60°
2026-05-07 19:08 39.51593 2.64469 1214 ft 166 kts 57°
2026-05-07 19:09 39.52156 2.65670 997 ft 147 kts 58°
2026-05-07 19:09 39.52672 2.66761 812 ft 144 kts 61°
2026-05-07 19:09 39.53208 2.67895 634 ft 150 kts 59°
2026-05-07 19:09 39.53584 2.68676 534 ft 151 kts 58°
2026-05-07 19:10 39.54115 2.69810 327 ft 147 kts 57°
2026-05-07 19:10 39.54645 2.70920 107 ft 144 kts 57°
2026-05-07 19:10 39.55152 2.71982 38 ft 125 kts 58°
2026-05-07 19:10 39.55494 2.72739 38 ft 68 kts 68°
2026-05-07 19:11 39.55681 2.73142 37 ft 34 kts 58°
2026-05-07 19:11 39.55715 2.73284 14 ft 8 kts 82°
2026-05-07 19:11 39.55720 2.73343 38 ft 4 kts 88°
2026-05-07 19:11 39.55721 2.73379 38 ft 4 kts 89°
2026-05-07 19:12 39.55721 2.73435 38 ft 8 kts 89°
2026-05-07 19:12 39.55721 2.73494 38 ft 0 kts 90°
2026-05-07 19:12 39.55706 2.73534 37 ft 9 kts 139°
2026-05-07 19:13 39.55658 2.73515 38 ft 6 kts 213°
2026-05-07 19:13 39.55621 2.73506 38 ft 8 kts 173°